sat.trackr.live / text

‹ back to catalog

STARLINK-34340

NORAD 64163 · 2025-112T

PAYLOAD ACTIVE UNKNOWN

§ Identity

Operator
Country
US
Launch date
2025-05-27
Launch site
AFWTR
Launch vehicle
Mass (kg)
RCS (m²)

Purposes: comms

External: N2YO · Heavens-Above · Gunter

§ Orbital elements

Epoch: 2026-05-25T02:26:12.269760Z

Period
95.64 min
Inclination
97.4498°
Eccentricity
0.0000902
Mean motion
15.05645052 rev/d
Perigee alt
548.9 km
Apogee alt
550.2 km
Semi-major
6,927.7 km
B*
-6.0967e-5
RAAN
196.4407°
Arg perigee
103.9729°
Mean anomaly
256.1598°
Rev number
5,480

§ Raw data

STARLINK-343401 64163U 25112T   26145.10153090 -.00000938  00000+0 -60967-4 0  99912 64163  97.4498 196.4407 0000902 103.9729 256.1598 15.05645052 54802

JSON: /api/v1/satellites/64163 · /tle

For live sub-satellite position, see the globe view (requires WebGL).

§ Visibility from observer

Set your observer location to see the next 7 days of passes ≥ 10°. The values pass through the URL so the page stays shareable.

No JS? Fill the form by hand. The geolocation button needs JavaScript.